W7KKE-3 Weather Reports


time (UTC)temp
F
wind
direction
speed
knots
gust
knots
rain 1hr
in
rain 24hr
in
rain mn
in
humidity
%
barometer
mb
20260831210825 69 280 6.1 8.7 0.00 0.00 0.00 75 1006.3
20260831210326 69 296 6.1 7.8 0.00 0.00 0.00 75 1006.4
20260831205826 69 285 5.2 7.8 0.00 0.00 0.00 74 1006.4
20260831205325 69 299 3.5 8.7 0.00 0.00 0.00 75 1006.3
20260831204825 69 291 6.1 8.7 0.00 0.00 0.00 75 1006.3
20260831204326 69 287 5.2 8.7 0.00 0.00 0.00 74 1006.4
20260831203825 69 308 7.0 8.7 0.00 0.00 0.00 73 1006.4
20260831203325 70 281 6.1 8.7 0.00 0.00 0.00 73 1006.4
20260831202826 69 306 6.1 9.6 0.00 0.00 0.00 74 1006.5
20260831202325 69 303 7.0 9.6 0.00 0.00 0.00 74 1006.5
20260831201825 69 291 6.1 9.6 0.00 0.00 0.00 74 1006.6
20260831201326 69 322 6.1 7.8 0.00 0.00 0.00 74 1006.6
20260831200825 69 294 5.2 7.8 0.00 0.00 0.00 75 1006.6
20260831200325 69 317 5.2 6.1 0.00 0.00 0.00 75 1006.6
20260831195826 69 284 4.3 7.8 0.00 0.00 0.00 74 1006.5
20260831195325 69 333 5.2 7.8 0.00 0.00 0.00 75 1006.5
20260831194825 69 343 5.2 7.8 0.00 0.00 0.00 74 1006.6
20260831194326 69 331 5.2 7.0 0.00 0.00 0.00 74 1006.5
20260831193825 69 298 4.3 7.8 0.00 0.00 0.00 75 1006.6
20260831193325 69 309 5.2 7.8 0.00 0.00 0.00 74 1006.6
20260831192826 69 315 5.2 7.8 0.00 0.00 0.00 74 1006.6
20260831192325 69 298 7.0 8.7 0.00 0.00 0.00 75 1006.7
20260831191825 69 313 5.2 8.7 0.00 0.00 0.00 74 1006.6
20260831191326 69 277 5.2 8.7 0.00 0.00 0.00 74 1006.7
20260831190825 68 288 5.2 7.8 0.00 0.00 0.00 74 1006.8
20260831190325 69 298 5.2 7.8 0.00 0.00 0.00 74 1006.8
20260831185826 68 301 3.5 6.1 0.00 0.00 0.00 75 1007.0
20260831185325 68 287 4.3 6.1 0.00 0.00 0.00 75 1007.0
20260831184825 68 282 3.5 6.1 0.00 0.00 0.00 76 1007.0
20260831183825 67 337 2.6 6.1 0.00 0.00 0.00 74 1007.0
20260831183325 67 324 3.5 6.1 0.00 0.00 0.00 76 1006.9
20260831182826 67 288 3.5 6.1 0.00 0.00 0.00 77 1007.0
20260831182325 67 292 2.6 7.0 0.00 0.00 0.00 77 1007.0
20260831181825 67 320 3.5 7.0 0.00 0.00 0.00 77 1007.0
20260831181326 67 284 2.6 7.0 0.00 0.00 0.00 77 1007.1
20260831180825 66 292 5.2 5.2 0.00 0.00 0.00 79 1007.1
20260831180325 66 289 3.5 5.2 0.00 0.00 0.00 79 1007.0
20260831175826 65 291 3.5 6.1 0.00 0.00 0.00 80 1007.0
20260831175325 65 274 1.7 6.1 0.00 0.00 0.00 81 1007.0
20260831174825 65 275 2.6 6.1 0.00 0.00 0.00 81 1007.0
20260831174326 64 282 3.5 5.2 0.00 0.00 0.00 82 1007.0
20260831173825 64 288 2.6 5.2 0.00 0.00 0.00 82 1007.1
20260831173325 63 280 2.6 5.2 0.00 0.00 0.00 83 1007.1
20260831172826 63 284 3.5 5.2 0.00 0.00 0.00 82 1007.1
20260831172325 63 303 1.7 5.2 0.00 0.00 0.00 83 1007.1
20260831171825 63 280 1.7 5.2 0.00 0.00 0.00 84 1007.1
20260831170825 62 320 2.6 4.3 0.00 0.00 0.00 85 1007.1
20260831170325 62 299 1.7 2.6 0.00 0.00 0.00 85 1007.1
20260831165826 62 298 1.7 3.5 0.00 0.00 0.00 86 1007.1
20260831165325 62 312 1.7 3.5 0.00 0.00 0.00 86 1007.1
20260831164825 61 301 2.6 3.5 0.00 0.00 0.00 86 1007.1
20260831163825 61 275 1.7 4.3 0.00 0.00 0.00 87 1007.2
20260831163325 61 296 1.7 4.3 0.00 0.00 0.00 87 1007.2
20260831162826 61 289 2.6 4.3 0.00 0.00 0.00 87 1007.3
20260831162325 61 319 0.9 3.5 0.00 0.00 0.00 87 1007.4
20260831161825 60 317 1.7 3.5 0.00 0.00 0.00 87 1007.4
20260831161326 60 0 2.6 2.6 0.00 0.00 0.00 88 1007.4
20260831160825 59 0 0.0 0.9 0.00 0.00 0.00 88 1007.4
20260831160325 58 285 0.0 0.9 0.00 0.00 0.00 88 1007.4
20260831155826 57 295 0.0 0.9 0.00 0.00 0.00 87 1007.4
20260831155325 57 0 0.0 0.0 0.00 0.00 0.00 87 1007.5
20260831154825 57 0 0.0 0.0 0.00 0.00 0.00 87 1007.5
20260831154326 56 0 0.0 0.0 0.00 0.00 0.00 87 1007.6
20260831153825 56 0 0.0 0.0 0.00 0.00 0.00 87 1007.7
20260831153326 56 0 0.0 0.0 0.00 0.00 0.00 87 1007.6
20260831152826 56 0 0.0 0.0 0.00 0.00 0.00 87 1007.6
20260831152325 56 0 0.0 0.0 0.00 0.00 0.00 87 1007.6
20260831151825 56 0 0.0 0.0 0.00 0.00 0.00 87 1007.7
20260831151326 55 0 0.0 0.0 0.00 0.00 0.00 87 1007.7
20260831150825 55 0 0.0 0.0 0.00 0.00 0.00 87 1007.7
20260831150325 55 0 0.0 0.0 0.00 0.00 0.00 86 1007.7
20260831145826 55 0 0.0 0.0 0.00 0.00 0.00 86 1007.7
20260831145325 55 0 0.0 0.0 0.00 0.00 0.00 86 1007.6
20260831144825 55 0 0.0 0.0 0.00 0.00 0.00 86 1007.6
20260831144326 54 0 0.0 0.0 0.00 0.00 0.00 86 1007.6
20260831143825 54 0 0.0 0.0 0.00 0.00 0.00 86 1007.6
20260831143325 54 0 0.0 2.6 0.00 0.00 0.00 86 1007.5
20260831142826 54 0 0.0 2.6 0.00 0.00 0.00 86 1007.4
20260831142326 54 95 0.0 2.6 0.00 0.00 0.00 86 1007.4
20260831141825 54 96 1.7 1.7 0.00 0.00 0.00 86 1007.4
20260831141326 54 105 0.9 4.3 0.00 0.00 0.00 86 1007.3
20260831140825 54 103 0.9 4.3 0.00 0.00 0.00 86 1007.3
20260831140325 54 106 3.5 4.3 0.00 0.00 0.00 86 1007.3
20260831135826 54 99 3.5 4.3 0.00 0.00 0.00 86 1007.2
20260831135325 54 100 3.5 4.3 0.00 0.00 0.00 86 1007.2
20260831134825 55 103 3.5 3.5 0.00 0.00 0.00 86 1007.2
20260831134326 55 109 2.6 3.5 0.00 0.00 0.00 86 1007.4
20260831133825 55 91 0.0 3.5 0.00 0.00 0.00 85 1007.4
20260831133325 55 89 0.0 3.5 0.00 0.00 0.00 85 1007.4
20260831132826 55 110 2.6 2.6 0.00 0.00 0.00 85 1007.4
20260831132325 55 117 0.9 2.6 0.00 0.00 0.00 85 1007.5
20260831131825 55 99 1.7 3.5 0.00 0.00 0.00 85 1007.5
20260831130825 55 103 0.9 3.5 0.00 0.00 0.00 85 1007.6
20260831130325 55 113 1.7 2.6 0.00 0.00 0.00 85 1007.6
20260831125827 55 92 1.7 2.6 0.00 0.00 0.00 85 1007.6
20260831125325 55 77 1.7 2.6 0.00 0.00 0.00 85 1007.6
20260831124825 55 91 0.0 2.6 0.00 0.00 0.00 85 1007.5
20260831123825 55 105 0.9 1.7 0.00 0.00 0.00 85 1007.5
20260831123326 55 0 0.0 0.0 0.00 0.00 0.00 85 1007.6
20260831122826 55 0 0.0 0.0 0.00 0.00 0.00 85 1007.7
20260831122325 55 0 0.0 2.6 0.00 0.00 0.00 85 1007.7
20260831121825 55 85 0.0 2.6 0.00 0.00 0.00 85 1007.8
20260831121326 55 107 0.9 2.6 0.00 0.00 0.00 85 1007.7
20260831120825 55 84 2.6 2.6 0.00 0.00 0.00 84 1007.8
20260831120325 56 93 2.6 2.6 0.00 0.00 0.00 84 1007.8
20260831115826 56 92 1.7 1.7 0.00 0.00 0.00 84 1007.9
20260831115325 56 103 0.9 4.3 0.00 0.00 0.00 84 1007.9
20260831114825 56 106 0.0 4.3 0.00 0.00 0.00 84 1007.9
20260831113825 56 91 3.5 3.5 0.00 0.00 0.00 84 1007.9
20260831113325 56 103 3.5 3.5 0.00 0.00 0.00 84 1007.9
20260831112826 56 100 1.7 3.5 0.00 0.00 0.00 84 1008.0
20260831112325 56 98 1.7 3.5 0.00 0.00 0.00 84 1008.0
20260831111825 56 106 1.7 2.6 0.00 0.00 0.00 84 1008.1
20260831110825 56 0 0.0 1.7 0.00 0.00 0.00 84 1008.1
20260831110325 56 91 0.0 1.7 0.00 0.00 0.00 84 1008.2
20260831105826 56 0 0.9 0.9 0.00 0.00 0.00 84 1008.2
20260831105325 56 0 0.0 1.7 0.00 0.00 0.00 83 1008.2
20260831104825 56 91 0.0 1.7 0.00 0.00 0.00 83 1008.2
20260831104326 56 102 0.9 1.7 0.00 0.00 0.00 83 1008.1
20260831103825 56 99 0.9 1.7 0.00 0.00 0.00 83 1008.1
20260831103325 56 88 0.9 0.9 0.00 0.00 0.00 83 1008.2
20260831102826 56 75 0.0 1.7 0.00 0.00 0.00 83 1008.2
20260831102326 57 86 0.9 1.7 0.00 0.00 0.00 83 1008.2
20260831101825 57 86 0.9 1.7 0.00 0.00 0.00 83 1008.2
20260831101326 57 0 0.0 0.0 0.00 0.00 0.00 83 1008.3
20260831100825 57 0 0.0 0.0 0.00 0.00 0.00 83 1008.4
20260831100325 56 0 0.0 0.0 0.00 0.00 0.00 83 1008.5
20260831095826 57 0 0.0 0.0 0.00 0.00 0.00 83 1008.5
20260831094825 57 102 1.7 3.5 0.00 0.00 0.00 83 1008.4
20260831094326 57 113 2.6 3.5 0.00 0.00 0.00 83 1008.5
20260831093825 57 106 2.6 3.5 0.00 0.00 0.00 83 1008.6
20260831093326 57 93 1.7 3.5 0.00 0.00 0.00 83 1008.6
20260831092826 57 89 1.7 3.5 0.00 0.00 0.00 82 1008.7
20260831092325 57 100 1.7 3.5 0.00 0.00 0.00 82 1008.7
20260831091825 57 102 2.6 2.6 0.00 0.00 0.00 82 1008.9
20260831091326 57 117 2.6 3.5 0.00 0.00 0.00 82 1008.9
20260831090825 57 106 2.6 3.5 0.00 0.00 0.00 82 1009.0
20260831090325 57 103 1.7 3.5 0.00 0.00 0.00 82 1009.0
20260831085826 57 91 2.6 2.6 0.00 0.00 0.00 82 1009.0
20260831085325 58 92 1.7 1.7 0.00 0.00 0.00 82 1009.1
20260831084825 58 107 1.7 1.7 0.00 0.00 0.00 82 1009.2
20260831084326 58 102 1.7 1.7 0.00 0.00 0.00 82 1009.3
20260831083825 58 0 0.0 0.0 0.00 0.00 0.00 82 1009.3
20260831083325 58 79 0.0 1.7 0.00 0.00 0.00 82 1009.4
20260831082826 58 105 0.0 1.7 0.00 0.00 0.00 81 1009.4
20260831082326 58 91 1.7 1.7 0.00 0.00 0.00 81 1009.3
20260831081825 58 89 1.7 2.6 0.00 0.00 0.00 81 1009.3
20260831081448 58 91 2.6 2.6 0.00 0.00 0.00 81 1009.4
20260831081326 58 91 2.6 2.6 0.00 0.00 0.00 81 1009.4
20260831080825 58 119 1.7 2.6 0.00 0.00 0.00 81 1009.5
20260831080327 58 0 0.0 0.0 0.00 0.00 0.00 81 1009.5
20260831075826 58 0 0.0 1.7 0.00 0.00 0.00 81 1009.7
20260831075326 58 86 0.0 1.7 0.00 0.00 0.00 81 1009.7
20260831074825 58 88 1.7 1.7 0.00 0.00 0.00 81 1009.7
20260831074326 58 107 0.9 3.5 0.00 0.00 0.00 81 1009.7
20260831073325 59 100 1.7 3.5 0.00 0.00 0.00 81 1009.7
20260831072826 59 103 1.7 2.6 0.00 0.00 0.00 81 1009.7
20260831072325 59 99 1.7 3.5 0.00 0.00 0.00 81 1009.8
20260831071825 59 103 1.7 3.5 0.00 0.00 0.00 81 1009.9
20260831071326 59 110 1.7 3.5 0.00 0.00 0.00 81 1009.9
20260831070825 59 105 2.6 3.5 0.00 0.00 0.00 81 1010.0
20260831070325 59 114 1.7 2.6 0.00 0.00 0.00 81 1010.1
20260831065826 58 0 0.9 0.9 0.00 0.00 0.00 80 1010.1
20260831065325 58 0 0.0 0.0 0.00 0.00 0.00 80 1010.2
20260831064825 59 0 0.0 0.9 0.00 0.00 0.00 80 1010.2
20260831064326 59 0 0.0 0.9 0.00 0.00 0.00 80 1010.2
20260831063825 58 33 0.0 0.9 0.00 0.00 0.00 80 1010.3
20260831063325 58 71 0.0 0.0 0.00 0.00 0.00 80 1010.3
20260831062826 58 89 0.0 2.6 0.00 0.00 0.00 80 1010.5
20260831062325 59 100 0.9 2.6 0.00 0.00 0.00 79 1010.4
20260831061825 59 88 0.9 2.6 0.00 0.00 0.00 79 1010.5
20260831061326 59 114 1.7 1.7 0.00 0.00 0.00 79 1010.6
20260831060825 59 0 0.0 0.0 0.00 0.00 0.00 79 1010.5
20260831060325 59 0 0.0 2.6 0.00 0.00 0.00 79 1010.6
20260831055826 59 0 0.0 2.6 0.00 0.00 0.00 79 1010.7
20260831055325 59 95 0.0 2.6 0.00 0.00 0.00 79 1010.8
20260831054825 59 98 1.7 1.7 0.00 0.00 0.00 79 1010.8
20260831054326 59 109 0.9 2.6 0.00 0.00 0.00 78 1010.7
20260831053825 59 82 1.7 2.6 0.00 0.00 0.00 78 1010.8
20260831053325 59 99 1.7 2.6 0.00 0.00 0.00 78 1010.9
20260831052826 60 93 2.6 2.6 0.00 0.00 0.00 78 1010.9
20260831052325 59 114 1.7 2.6 0.00 0.00 0.00 78 1011.0
20260831051825 60 96 1.7 2.6 0.00 0.00 0.00 77 1011.0
20260831051326 60 86 1.7 2.6 0.00 0.00 0.00 77 1011.1
20260831050825 60 102 1.7 3.5 0.00 0.00 0.00 77 1011.2
20260831050325 60 109 1.7 3.5 0.00 0.00 0.00 77 1011.2
20260831045826 60 117 2.6 3.5 0.00 0.00 0.00 77 1011.2
20260831045325 60 96 1.7 2.6 0.00 0.00 0.00 77 1011.3
20260831044825 60 99 1.7 2.6 0.00 0.00 0.00 77 1011.3
20260831044326 61 93 1.7 2.6 0.00 0.00 0.00 76 1011.5
20260831043825 60 84 0.9 1.7 0.00 0.00 0.00 76 1011.5
20260831043325 60 105 0.9 2.6 0.00 0.00 0.00 75 1011.5
20260831042826 61 85 1.7 2.6 0.00 0.00 0.00 75 1011.5
20260831042325 61 107 1.7 2.6 0.00 0.00 0.00 75 1011.5
20260831041825 61 98 1.7 2.6 0.00 0.00 0.00 75 1011.5
20260831041326 61 100 1.7 2.6 0.00 0.00 0.00 75 1011.5
20260831040825 61 98 0.9 2.6 0.00 0.00 0.00 74 1011.5
20260831040325 62 100 1.7 2.6 0.00 0.00 0.00 74 1011.5
20260831035826 62 75 0.9 1.7 0.00 0.00 0.00 74 1011.6
20260831035325 62 82 0.0 4.3 0.00 0.00 0.00 74 1011.6
20260831034826 62 112 0.9 4.3 0.00 0.00 0.00 74 1011.6
20260831034326 62 36 1.7 4.3 0.00 0.00 0.00 74 1011.6
20260831033825 63 102 1.7 1.7 0.00 0.00 0.00 73 1011.6
20260831033325 63 100 0.0 1.7 0.00 0.00 0.00 73 1011.6
20260831032826 63 291 0.0 7.8 0.00 0.00 0.00 73 1011.6
20260831032401 63 344 0.9 7.8 0.00 0.00 0.00 73 1011.6
20260831032325 63 344 0.9 7.8 0.00 0.00 0.00 73 1011.6
20260831031825 63 322 3.5 7.8 0.00 0.00 0.00 73 1011.6
20260831031326 64 331 2.6 4.3 0.00 0.00 0.00 72 1011.6
20260831030825 64 292 0.9 6.1 0.00 0.00 0.00 72 1011.7
20260831030325 64 334 2.6 6.1 0.00 0.00 0.00 72 1011.6
20260831025826 64 338 0.9 6.1 0.00 0.00 0.00 71 1011.7
20260831025325 64 22 4.3 5.2 0.00 0.00 0.00 71 1011.7
20260831024825 64 319 2.6 8.7 0.00 0.00 0.00 71 1011.7
20260831024326 65 337 3.5 8.7 0.00 0.00 0.00 71 1011.8
20260831023825 65 350 4.3 8.7 0.00 0.00 0.00 70 1011.7
20260831023325 65 322 6.1 11.3 0.00 0.00 0.00 70 1011.8
20260831022826 65 347 6.1 11.3 0.00 0.00 0.00 70 1011.8
20260831022325 65 317 6.1 11.3 0.00 0.00 0.00 70 1011.9
20260831021825 66 322 5.2 10.4 0.00 0.00 0.00 69 1011.9
20260831020825 66 338 6.1 10.4 0.00 0.00 0.00 69 1012.0
20260831020325 66 341 6.1 8.7 0.00 0.00 0.00 69 1012.1
20260831015826 66 324 4.3 9.6 0.00 0.00 0.00 68 1012.1
20260831015325 66 336 5.2 9.6 0.00 0.00 0.00 68 1012.1
20260831014825 66 317 6.1 9.6 0.00 0.00 0.00 68 1012.1
20260831014326 66 336 5.2 13.9 0.00 0.00 0.00 67 1012.1
20260831013825 66 329 8.7 13.9 0.00 0.00 0.00 67 1012.2
20260831013325 66 331 7.8 13.9 0.00 0.00 0.00 66 1012.4
20260831012826 67 337 7.8 13.0 0.00 0.00 0.00 66 1012.4
20260831012325 67 345 7.8 17.4 0.00 0.00 0.00 66 1012.4
20260831011825 67 7 7.0 17.4 0.00 0.00 0.00 67 1012.5
20260831011327 67 347 7.8 17.4 0.00 0.00 0.00 66 1012.6
20260831010825 67 331 6.1 13.9 0.00 0.00 0.00 67 1012.6
20260831010325 67 317 7.8 12.2 0.00 0.00 0.00 67 1012.7
20260831005826 67 323 7.0 16.5 0.00 0.00 0.00 67 1012.7
20260831005325 67 345 9.6 16.5 0.00 0.00 0.00 67 1012.8
20260831004825 67 316 7.8 16.5 0.00 0.00 0.00 67 1012.9
20260831004327 67 324 8.7 15.6 0.00 0.00 0.00 67 1013.0
20260831003825 67 312 8.7 19.1 0.00 0.00 0.00 67 1013.0
20260831003325 67 322 8.7 19.1 0.00 0.00 0.00 67 1013.1
20260831002826 67 320 10.4 19.1 0.00 0.00 0.00 66 1013.2
20260831002325 67 323 9.6 18.2 0.00 0.00 0.00 66 1013.3
20260831001825 67 331 9.6 17.4 0.00 0.00 0.00 66 1013.3
20260831001326 67 317 9.6 17.4 0.00 0.00 0.00 66 1013.2
20260831000825 67 331 12.2 16.5 0.00 0.00 0.00 66 1013.2
20260831000325 68 330 10.4 16.5 0.00 0.00 0.00 66 1013.3
20260830235826 67 329 9.6 16.5 0.00 0.00 0.00 66 1013.4
20260830235325 68 319 10.4 19.1 0.00 0.00 0.00 66 1013.3
20260830234825 68 316 11.3 19.1 0.00 0.00 0.00 66 1013.5
20260830234326 67 344 10.4 19.1 0.00 0.00 0.00 66 1013.5
20260830233825 67 309 10.4 17.4 0.00 0.00 0.00 66 1013.5
20260830233325 68 322 11.3 17.4 0.00 0.00 0.00 66 1013.6
20260830232826 68 322 9.6 17.4 0.00 0.00 0.00 67 1013.6
20260830232325 67 319 9.6 20.0 0.00 0.00 0.00 67 1013.7
20260830231825 67 323 8.7 20.0 0.00 0.00 0.00 67 1013.7
20260830231326 67 329 11.3 20.0 0.00 0.00 0.00 67 1013.8
20260830230825 68 308 12.2 19.1 0.00 0.00 0.00 67 1013.9
20260830230325 68 313 11.3 19.1 0.00 0.00 0.00 67 1013.9
20260830225826 68 333 13.0 20.9 0.00 0.00 0.00 67 1014.0
20260830225325 68 324 12.2 20.9 0.00 0.00 0.00 67 1014.0
20260830224825 68 309 13.0 20.9 0.00 0.00 0.00 67 1014.1
20260830224326 68 320 14.8 20.9 0.00 0.00 0.00 67 1014.2
20260830223825 68 341 11.3 20.9 0.00 0.00 0.00 67 1014.2
20260830223325 68 336 12.2 21.7 0.00 0.00 0.00 67 1014.3
20260830222826 68 319 13.0 21.7 0.00 0.00 0.00 66 1014.3
20260830222325 68 344 12.2 21.7 0.00 0.00 0.00 67 1014.4
20260830221825 68 313 11.3 20.9 0.00 0.00 0.00 67 1014.5
20260830221326 68 308 13.0 19.1 0.00 0.00 0.00 67 1014.5
20260830220825 68 326 12.2 19.1 0.00 0.00 0.00 68 1014.5
20260830220325 68 334 10.4 19.1 0.00 0.00 0.00 68 1014.6
20260830215826 68 308 9.6 18.2 0.00 0.00 0.00 69 1014.7
20260830215326 68 324 9.6 19.1 0.00 0.00 0.00 69 1014.8
20260830214825 68 333 12.2 19.1 0.00 0.00 0.00 69 1014.8
20260830214327 68 331 10.4 19.1 0.00 0.00 0.00 69 1014.9
20260830213825 68 310 12.2 19.1 0.00 0.00 0.00 69 1015.0
20260830213325 68 330 11.3 19.1 0.00 0.00 0.00 69 1014.9
20260830212826 68 306 10.4 19.1 0.00 0.00 0.00 68 1014.9
20260830212325 69 340 10.4 20.0 0.00 0.00 0.00 68 1014.9
20260830211825 68 336 10.4 20.0 0.00 0.00 0.00 69 1014.9
20260830211326 68 323 11.3 20.0 0.00 0.00 0.00 68 1014.9